#timestamp,LO_Frequency,Hit,StdDev 
1608645875.8,286046996.4,P
1608645895.6,286046995.2,P
1608645915.5,286046995.1,P
1608645935.3,286046995.0,Y
1608645955.2,286047004.3,P
1608645975.9,286047005.4,N
1608645995.7,286047004.7,N
1608646015.6,286047004.3,N
1608646035.4,286047001.8,N
1608646055.2,286047001.5,N
1608646075.1,286047001.3,N
1608646076.0,286047001.3,N
1608646095.8,286047001.6,N
1608646115.7,286047002.7,N
1608646135.5,286047002.2,N
1608646155.3,286047003.3,N
1608646175.2,286047003.1,N
1608646195.0,286047000.8,N
1608646195.9,286047000.8,N
1608646215.7,286046996.8,N
1608646235.6,286046995.1,N
1608646255.4,286046995.2,N
1608646275.3,286046997.9,N
1608646295.1,286046997.6,N
1608646296.0,286046997.6,N
1608646315.8,286046995.2,N
1608646335.7,286046996.4,N
1608646355.5,286046996.2,N
1608646375.3,286046996.7,N
1608646395.2,286046999.1,N
1608646415.0,286046999.3,N
1608646415.9,286046999.3,N
1608646435.8,286047002.5,N
1608646455.6,286047001.6,N
1608646475.4,286046998.6,N
1608646495.3,286046998.2,N
1608646515.1,286046996.7,N
1608646535.8,286047000.9,N
1608646555.7,286047000.2,N
1608646575.5,286047003.9,N
1608646595.4,286047004.4,N
1608646615.2,286047003.2,N
1608646635.0,286047005.1,N
1608646635.9,286047005.1,N
1608646655.8,286047007.9,N
1608646675.6,286047011.6,Y
1608646695.4,286047013.4,P
1608646715.3,286047010.1,N
1608646735.1,286047005.7,N
1608646755.9,286047002.4,N
1608646775.7,286046999.9,N
1608646795.5,286047000.8,N
1608646815.4,286046997.1,N
1608646835.2,286046998.0,N
1608646855.1,286046997.3,N
1608646856.0,286046997.3,N
1608646875.8,286046997.1,N
1608646895.6,286046999.5,N
1608646915.5,286046997.3,N
1608646935.3,286047001.2,N
1608646955.1,286047001.4,N
1608646975.9,286047002.8,N
1608646995.7,286046997.1,N
1608647015.6,286046999.5,N
1608647035.4,286046997.6,N
1608647055.2,286046996.3,N
1608647075.1,286046994.3,N
1608647076.0,286046994.3,N
1608647125.8,286046992.7,E
1608647135.8,286046993.3,N
1608647155.6,286046996.7,P
1608647175.4,286046998.3,N
1608647195.3,286046998.4,N
1608647215.1,286046999.9,N
1608647235.8,286047000.3,N
1608647255.7,286047001.9,N
1608647275.5,286047001.4,N
1608647295.4,286047001.7,N
1608647315.2,286046999.7,N
1608647335.0,286046999.7,N
1608647335.9,286046999.7,N
1608647355.8,286047000.3,N
1608647375.6,286047002.7,N
1608647395.4,286047000.3,N
1608647415.3,286047000.9,N
1608647435.1,286047000.3,N
1608647455.9,286046999.0,N
1608647475.7,286046996.9,N
1608647495.5,286046997.0,N
1608647515.4,286046995.0,N
1608647535.2,286046996.5,N
1608647555.0,286046998.7,N
1608647555.9,286046998.7,N
1608647575.8,286046997.9,N
1608647595.6,286046995.8,N
1608647615.4,286046996.0,N
1608647635.3,286046997.7,N
1608647655.1,286046995.3,N
1608647675.9,286046997.5,N
1608647695.7,286046997.9,N
1608647715.5,286046997.6,N
1608647735.4,286046997.7,N
1608647755.2,286046998.0,N
1608647775.0,286046995.4,N
1608647775.9,286046995.4,N
1608647795.8,286046995.8,N
1608647815.6,286046994.9,N
1608647835.5,286046998.0,N
1608647855.3,286046997.2,N
1608647875.1,286046994.9,N
1608647895.9,286046995.4,N
1608647915.7,286046995.2,N
1608647935.5,286046994.9,N
1608647955.4,286046995.6,N
1608647975.2,286046997.7,N
1608647995.1,286046997.1,N
1608647996.0,286046997.1,N
1608648015.8,286046996.9,N
1608648035.6,286046995.2,Y
1608648055.5,286046998.9,P
1608648075.3,286046998.7,N
1608648095.1,286046999.4,N
1608648115.9,286046999.4,N
1608648135.7,286046999.3,N
1608648155.6,286046998.3,N
1608648175.4,286046998.5,N
1608648195.2,286046998.5,N
1608648215.1,286046998.8,N
1608648216.0,286046998.8,N
1608648235.8,286047000.9,N
1608648255.6,286047000.9,N
1608648275.5,286046998.4,N
1608648325.4,286046998.3,E
1608648335.3,286047001.0,N
1608648355.1,286047000.9,P
1608648375.8,286046998.4,P
1608648395.7,286046998.2,N
1608648415.5,286046999.8,N
1608648435.4,286047002.5,N
1608648455.2,286047002.6,N
1608648475.0,286047002.5,N
1608648475.9,286047002.5,N
1608648495.8,286047000.9,N
1608648515.6,286047001.9,N
1608648535.5,286047002.3,N
1608648555.3,286047001.4,N
1608648575.1,286047004.2,N
1608648595.9,286047005.1,Y
1608648615.7,286047003.4,P
1608648635.5,286047001.3,N
1608648655